Whidbey Island, WA
on Tuesday, February 26, 2013

Tuesday
Previous Day Next Day
Daily Summary
 ActualAverageRecord
Temperature
Mean Temperature °F °F  
Max Temperature 46°F 47°F 55°F (2004)
Min Temperature 39°F 33°F 19°F (2011)
Degree Days
Heating Degree Days 22    
Moisture
Dew Point 34°F   
Average Humidity 70    
Maximum Humidity 82    
Minimum Humidity 56    
Precipitation
Precipitation 0.00 in in in ()
Wind
Wind Speed 16 mph   
Max Wind Speed 31 mph   
Max Gust Speed 39 mph   
Visibility 10 miles   
Events     
Averages and records for this station are not official NWS values.
Key: T is trace of precipitation, MM is missing value
Source: NWS Daily Summary
Seasonal Weather Averages
Time(PST)TemperatureDew PointHumidity Pressure Visibility Wind DirectionWind SpeedGust SpeedPrecipitationEvents Conditions
12:56 AM 44.1°F 34.0°F 68% 30.30 in 10.0 miles WSW 13.8 mph - N/A   Mostly Cloudy
1:56 AM 42.1°F 34.0°F 73% 30.32 in 10.0 miles South 9.2 mph - N/A   Overcast
2:56 AM 41.0°F 35.1°F 79% 30.32 in 10.0 miles South 9.2 mph - N/A   Mostly Cloudy
3:56 AM 39.0°F 34.0°F 82% 30.32 in 10.0 miles SSE 11.5 mph - N/A   Mostly Cloudy
4:56 AM 39.0°F 34.0°F 82% 30.33 in 10.0 miles SE 9.2 mph - N/A   Mostly Cloudy
5:56 AM 39.0°F 34.0°F 82% 30.34 in 10.0 miles SE 13.8 mph - N/A   Mostly Cloudy
6:56 AM 39.0°F 33.1°F 79% 30.33 in 9.0 miles SE 12.7 mph - N/A   Overcast
7:56 AM 39.9°F 34.0°F 79% 30.34 in 9.0 miles ESE 12.7 mph - N/A   Overcast
8:56 AM 41.0°F 35.1°F 79% 30.34 in 9.0 miles ESE 15.0 mph - N/A   Overcast
9:56 AM 43.0°F 35.1°F 74% 30.32 in 9.0 miles SE 17.3 mph 25.3 mph N/A   Overcast
10:56 AM 44.1°F 35.1°F 71% 30.30 in 9.0 miles ESE 15.0 mph 21.9 mph N/A   Overcast
11:56 AM 45.0°F 35.1°F 68% 30.28 in 10.0 miles SE 16.1 mph 24.2 mph N/A   Overcast
12:24 PM 46.4°F 35.6°F 66% 30.26 in 10.0 miles SE 19.6 mph 24.2 mph N/A   Overcast
12:56 PM 46.0°F 35.1°F 66% 30.27 in 10.0 miles SE 19.6 mph 24.2 mph N/A   Overcast
1:56 PM 46.9°F 32.0°F 56% 30.25 in 10.0 miles SSE 18.4 mph 27.6 mph N/A   Overcast
2:56 PM 46.0°F 32.0°F 58% 30.24 in 10.0 miles SSE 21.9 mph 28.8 mph N/A   Overcast
3:56 PM 46.0°F 32.0°F 58% 30.22 in 10.0 miles SE 17.3 mph 25.3 mph N/A   Overcast
4:56 PM 46.0°F 30.9°F 56% 30.20 in 10.0 miles SE 18.4 mph 26.5 mph N/A   Overcast
5:56 PM 46.0°F 32.0°F 58% 30.18 in 10.0 miles SE 23.0 mph 31.1 mph N/A   Mostly Cloudy
6:56 PM 45.0°F 35.1°F 68% 30.17 in 10.0 miles SE 27.6 mph 36.8 mph N/A   Mostly Cloudy
7:56 PM 45.0°F 35.1°F 68% 30.17 in 10.0 miles SSE 26.5 mph 35.7 mph N/A   Mostly Cloudy
8:56 PM 44.1°F 34.0°F 68% 30.17 in 10.0 miles SSE 31.1 mph 39.1 mph N/A   Mostly Cloudy
9:56 PM 43.0°F 34.0°F 71% 30.16 in 10.0 miles SE 26.5 mph 34.5 mph N/A   Mostly Cloudy
10:56 PM 44.1°F 35.1°F 71% 30.19 in 10.0 miles SSE 24.2 mph 32.2 mph N/A   Overcast
11:56 PM 43.0°F 35.1°F 74% 30.20 in 10.0 miles South 23.0 mph 28.8 mph N/A   Overcast
Moon Phase
Feb. 26 Mar. 04 Mar. 11 Mar. 19 Mar. 27
Sunrise:06:57 AM (PST) Moon Rise:07:24 PM (PST)2/26
Sunset:05:50 PM (PST) Moon Set:06:54 AM (PST)2/26

Copyright © 2014 The Weather Underground, Inc.